[vc_row][vc_column width=”2/3″]

Nesenie raksti

Ziņas

[/vc_column][vc_column width=”1/3″ el_class=”sticky-column”]

Par Gliding.lv

[vc_column_text]Gliding.lv ir interneta vietne par planieriem un planierismu. Šeit būs atrodama informācija par iespējām pamēģināt, iesaistīties un organizēt planierisma aktivitātes. Izmanto Gliding.lv forumu, ja Tev ir kāda tēma diskusijai vai jautājums. Gliding.lv merķis ir informēt un apvienot planierisma interesentus, nodrošinot un apmainoties ar aktuālāko un arī bijušo. Lidojam![/vc_column_text][vc_column_text]
[/vc_column_text]

METAR

EVRA 100120Z 00000KT 5000 BR OVC002 M13/M14 Q1013 NOSIG

EVLA 100120Z AUTO 09001KT CAVOK M10/M12 Q1011

EVVA 100120Z AUTO 17008KT CAVOK M04/M06 Q1010

Nesenie raksti

[/vc_column][/vc_row]

Pāriet uz rīkjoslu